Starlink 31233

operational
NORAD ID: 58826 Int'l Des: 2024-017 Owner: SPXS Country: US Constellation: starlink
LEOCIRCULAR

About Starlink 31233

Description loading...

Live Position

Loading 3D Globe...

Upcoming Passes

Altitude History

Altitude vs Time

uPlot chart will show altitude changes over time

Two-Line Element Set

1 58826U 24017A 25350.97942450 .00000723 00000-0 36531-4 0 9992
2 58826 53.1594 228.4542 0001350 78.9700 281.1453 15.30200614107515
Epoch: Dec 16, 2025 • Age: 9 hours

Current Status

Altitude 482.5 km
Velocity 7.62 km/s
Sub-Earth Point -24.08°S, 10.7°W
Launch Date Jan 24, 2024
Age 1.8 years
Type internet

Technical Details

Classification Payload
Mass 730.00 kg
Dry Mass 700.00 kg
Total Mass 730.00 kg
Length 0.30 m
Diameter 4.10 m
Span 29.00 m
Shape Box + pan
Manufacturer SPXS
Bus Type Starlink V2M
Phase Status In Orbit
Owner/State SPXS/US

Large Constellations

Loading constellations...